Weather History for Artesia, NM

Change the Weather History Date:

Monday, May 27, 2013

  Actual Average Record
Temperature  
Mean Temperature 76 °F -  
Max Temperature 96 °F 89 °F 103 °F (1953)
Min Temperature 57 °F 54 °F 48 °F (1959)
Cooling Degree Days 12    
Growing Degree Days 26 (Base 50)    
Moisture  
Dew Point 28 °F    
Average Humidity 24    
Maximum Humidity 78    
Minimum Humidity 4    
Precipitation  
Precipitation 0.00 in - - ()
Sea Level Pressure  
Sea Level Pressure 29.85 in    
Wind  
Wind Speed 11 mph (SSW)    
Max Wind Speed 28 mph    
Max Gust Speed 38 mph    
Visibility 10 miles    
Events      
Averages and records for this station are not official NWS values.
T = Trace of Precipitation, MM = Missing Value Source: NWS Daily Summary

Daily Weather History Graph

Daily Weather History Graph

Search for Another Location

Airport:

Trip Planner

Search our weather history database for the weather conditions in past years. The results will help you decide how hot, cold, wet, or windy it might be!

Date:

Astronomy

May. 27, 2013 Rise Set
Actual Time 5:52 AM MDT 7:58 PM MDT
Civil Twilight 5:24 AM MDT 8:26 PM MDT
Nautical Twilight 4:50 AM MDT 9:00 PM MDT
Astronomical Twilight 4:13 AM MDT 9:37 PM MDT
Moon 10:43 PM MDT (5/27) 8:30 AM MDT (5/27)
Length of Visible Light 15h 02m
Length of Day
14h 06m
Waning Gibbous, 90% of the Moon is Illuminated
May 27
Waning Gibbous
May 31
Last Quarter
Jun 8
New
Jun 16
First Quarter
Jun 23
Full

Hourly Weather History & Observations

Time (MDT) Temp. Dew Point Humidity Pressure Visibility Wind Dir Wind Speed Gust Speed Precip Events Conditions
12:15 AM 75.2 °F 57.2 °F 53% 29.94 in 10.0 mi South 9.2 mph - N/A   Clear
12:35 AM 75.2 °F 57.2 °F 53% 29.93 in 10.0 mi South 11.5 mph - N/A   Clear
12:55 AM 75.2 °F 57.2 °F 53% 29.92 in 10.0 mi South 10.4 mph - N/A   Clear
1:15 AM 71.6 °F 57.2 °F 60% 29.92 in 10.0 mi SSE 10.4 mph - N/A   Clear
1:35 AM 71.6 °F 57.2 °F 60% 29.92 in 10.0 mi SSE 8.1 mph - N/A   Clear
1:55 AM 68.0 °F 57.2 °F 68% 29.92 in 10.0 mi SSE 6.9 mph - N/A   Clear
2:15 AM 68.0 °F 57.2 °F 68% 29.92 in 10.0 mi South 6.9 mph - N/A   Clear
2:35 AM 68.0 °F 57.2 °F 68% 29.92 in 10.0 mi South 6.9 mph - N/A   Clear
2:55 AM 66.2 °F 57.2 °F 73% 29.91 in 10.0 mi South 9.2 mph - N/A   Clear
3:15 AM 66.2 °F 57.2 °F 73% 29.91 in 10.0 mi South 10.4 mph - N/A   Clear
3:35 AM 66.2 °F 59.0 °F 78% 29.91 in 10.0 mi South 8.1 mph - N/A   Clear
3:55 AM 64.4 °F 57.2 °F 77% 29.91 in 10.0 mi SW 6.9 mph - N/A   Clear
4:35 AM 64.4 °F 50.0 °F 59% 29.92 in 10.0 mi SW 6.9 mph - N/A   Clear
4:55 AM 62.6 °F 50.0 °F 63% 29.92 in 10.0 mi WSW 6.9 mph - N/A   Clear
5:15 AM 62.6 °F 48.2 °F 59% 29.92 in 10.0 mi Calm Calm - N/A   Clear
5:35 AM 59.0 °F 48.2 °F 67% 29.92 in 10.0 mi WSW 3.5 mph - N/A   Clear
5:55 AM 57.2 °F 44.6 °F 63% 29.92 in 10.0 mi SW 6.9 mph - N/A   Clear
6:35 AM 62.6 °F 37.4 °F 39% 29.93 in 10.0 mi WNW 5.8 mph - N/A   Clear
7:15 AM 68.0 °F 33.8 °F 28% 29.93 in 10.0 mi West 9.2 mph - N/A   Clear
8:15 AM 71.6 °F 37.4 °F 29% 29.94 in 10.0 mi NE 4.6 mph - N/A   Clear
8:35 AM 73.4 °F 32.0 °F 22% 29.94 in 10.0 mi East 6.9 mph - N/A   Clear
8:55 AM 75.2 °F 32.0 °F 21% 29.94 in 10.0 mi Calm Calm - N/A   Clear
9:15 AM 77.0 °F 30.2 °F 18% 29.94 in 10.0 mi Calm Calm - N/A   Clear
9:35 AM 80.6 °F 28.4 °F 15% 29.93 in 10.0 mi East 5.8 mph - N/A   Clear
9:55 AM 80.6 °F 32.0 °F 17% 29.92 in 10.0 mi ENE 3.5 mph - N/A   Clear
10:15 AM 82.4 °F 28.4 °F 14% 29.92 in 10.0 mi NNE 5.8 mph - N/A   Clear
10:35 AM 84.2 °F 24.8 °F 11% 29.91 in 10.0 mi NNE 5.8 mph - N/A   Clear
10:55 AM 86.0 °F 23.0 °F 10% 29.91 in 10.0 mi NW 3.5 mph - N/A   Clear
11:15 AM 87.8 °F 23.0 °F 9% 29.91 in 10.0 mi East 4.6 mph - N/A   Clear
11:35 AM 89.6 °F 23.0 °F 9% 29.90 in 10.0 mi ENE 4.6 mph - N/A   Clear
11:55 AM 89.6 °F 19.4 °F 8% 29.89 in 10.0 mi North 3.5 mph - N/A   Clear
12:15 PM 91.4 °F 23.0 °F 8% 29.88 in 10.0 mi East 3.5 mph - N/A   Clear
12:35 PM 93.2 °F 23.0 °F 8% 29.87 in 10.0 mi South 9.2 mph - N/A   Clear
12:55 PM 95.0 °F 17.6 °F 6% 29.85 in 10.0 mi SW 17.3 mph 27.6 mph N/A   Clear
1:15 PM 95.0 °F 17.6 °F 6% 29.85 in 10.0 mi SSW 18.4 mph 28.8 mph N/A   Clear
1:35 PM 95.0 °F 17.6 °F 6% 29.83 in 10.0 mi SW 23.0 mph 31.1 mph N/A   Clear
1:55 PM 95.0 °F 17.6 °F 6% 29.83 in 10.0 mi SW 27.6 mph 32.2 mph N/A   Clear
2:15 PM 95.0 °F 17.6 °F 6% 29.82 in 7.0 mi SSW 24.2 mph 38.0 mph N/A   Clear
2:35 PM 95.0 °F 17.6 °F 6% 29.81 in 10.0 mi SSW 27.6 mph 31.1 mph N/A   Clear
2:55 PM 95.0 °F 15.8 °F 6% 29.80 in 10.0 mi SW 19.6 mph 29.9 mph N/A   Clear
3:15 PM 95.0 °F 14.0 °F 5% 29.78 in 10.0 mi SSW 21.9 mph 31.1 mph N/A   Clear
3:35 PM 95.0 °F 12.2 °F 5% 29.78 in 10.0 mi SW 21.9 mph 32.2 mph N/A   Clear
3:55 PM 96.8 °F 12.2 °F 4% 29.77 in 10.0 mi SW 19.6 mph 32.2 mph N/A   Clear
4:15 PM 95.0 °F 10.4 °F 4% 29.77 in 10.0 mi SW 20.7 mph 29.9 mph N/A   Clear
4:35 PM 96.8 °F 10.4 °F 4% 29.76 in 10.0 mi SW 24.2 mph 29.9 mph N/A   Clear
4:55 PM 95.0 °F 10.4 °F 4% 29.75 in 10.0 mi SW 21.9 mph 32.2 mph N/A   Clear
5:15 PM 95.0 °F 10.4 °F 4% 29.75 in 10.0 mi SW 21.9 mph 31.1 mph N/A   Clear
5:35 PM 95.0 °F 10.4 °F 4% 29.75 in 10.0 mi SW 18.4 mph 31.1 mph N/A   Clear
5:55 PM 93.2 °F 12.2 °F 5% 29.74 in 10.0 mi SW 21.9 mph 28.8 mph N/A   Clear
6:15 PM 93.2 °F 12.2 °F 5% 29.74 in 10.0 mi SW 21.9 mph 27.6 mph N/A   Clear
6:35 PM 93.2 °F 14.0 °F 5% 29.74 in 10.0 mi SW 21.9 mph - N/A   Clear
6:55 PM 93.2 °F 14.0 °F 5% 29.74 in 10.0 mi SW 18.4 mph - N/A   Clear
7:15 PM 91.4 °F 14.0 °F 6% 29.75 in 10.0 mi SW 18.4 mph - N/A   Clear
7:35 PM 89.6 °F 14.0 °F 6% 29.75 in 10.0 mi SW 16.1 mph - N/A   Clear
7:55 PM 89.6 °F 14.0 °F 6% 29.75 in 10.0 mi SW 16.1 mph 23.0 mph N/A   Clear
8:15 PM 86.0 °F 15.8 °F 7% 29.76 in 10.0 mi SW 15.0 mph - N/A   Clear
8:35 PM 86.0 °F 15.8 °F 7% 29.76 in 10.0 mi SW 13.8 mph - N/A   Clear
8:55 PM 84.2 °F 17.6 °F 8% 29.77 in 10.0 mi SW 12.7 mph - N/A   Clear
9:15 PM 80.6 °F 17.6 °F 10% 29.77 in 10.0 mi SW 12.7 mph - N/A   Clear
9:35 PM 78.8 °F 19.4 °F 11% 29.78 in 10.0 mi SW 11.5 mph - N/A   Clear
9:55 PM 82.4 °F 15.8 °F 8% 29.78 in 10.0 mi WSW 13.8 mph - N/A   Clear
10:15 PM 82.4 °F 15.8 °F 8% 29.79 in 10.0 mi WSW 15.0 mph - N/A   Clear
10:35 PM 80.6 °F 15.8 °F 9% 29.79 in 10.0 mi WSW 13.8 mph - N/A   Clear
10:55 PM 78.8 °F 17.6 °F 10% 29.79 in 10.0 mi WSW 15.0 mph - N/A   Clear
11:15 PM 77.0 °F 19.4 °F 12% 29.79 in 10.0 mi WSW 11.5 mph - N/A   Clear
11:35 PM 77.0 °F 19.4 °F 12% 29.79 in 10.0 mi WSW 11.5 mph - N/A   Clear
11:55 PM 75.2 °F 23.0 °F 14% 29.80 in 10.0 mi SSE 12.7 mph 19.6 mph N/A   Clear